Regional Weather Roundup
Issued by NWS

Home | Current Version | Previous Version | Graphics & Text | Print | Product List | Glossary On
Versions: 1 2 3 4 5 6 7 8 9 10 11 12 13 14 15 16 17 18 19 20 21 22 23 24 25 26 27 28 29 30 31 32 33 34 35 36 37 38 39 40 41 42 43 44 45 46 47 48 49 50
897
ASUS45 KABQ 231610
RWRNM
NEW MEXICO REGIONAL WEATHER ROUNDUP
NATIONAL WEATHER SERVICE ALBUQUERQUE NM
900 AM MST MON JAN 23 2017

NOTE: "FAIR" MEANS FEW OR NO CLOUDS BELOW 12,000 FEET AGL WITH NO
       SIGNIFICANT WEATHER OR OBSTRUCTIONS TO VISION.

      THIS PRODUCT IS RELEASED AS TWO VERSIONS.  ONE VERSION NEAR
      THE TOP OF THE HOUR CONTAINING PRELIMINARY DATA FROM ALBUQUERQUE
      AND OTHER STATIONS.  A FINAL VERSION WITH ADDITIONAL DATA IS
      ISSUED ABOUT 10 MINUTES AFTER THE HOUR.

NMZ501-503-504-510>518-231700-
NORTHWEST PLATEAU/NORTHCENTRAL MOUNTAINS

CITY           SKY/WX    TMP DP  RH WIND       PRES   REMARKS
FARMINGTON     FAIR      30  25  81 E12       29.88S WCI  20
LOS ALAMOS     CLOUDY    33  27  77 S14       29.95S WCI  23
SANTA FE       FAIR      35  28  75 SE6       29.96R WCI  30
TAOS           CLOUDY    30  21  69 NE7       29.94F WCI  23
ANGEL FIRE     FLURRIES  28  24  86 S9        29.93S WCI  19

$$
NMZ402-403-502-505>509-231700-
WESTCENTRAL MOUNTAINS/SOUTHWEST MOUNTAINS

CITY           SKY/WX    TMP DP  RH WIND       PRES   REMARKS
GALLUP         FAIR      36  23  59 SW10      29.90S WCI  28
GRANTS         FAIR      42  25  51 SW15      29.95S
SILVER CITY    CLOUDY    42  32  67 CALM      30.06R

$$
NMZ407-409-411-412-231700-
SOUTHERN DESERTS

CITY           SKY/WX    TMP DP  RH WIND       PRES   REMARKS
DEMING         FAIR      38  30  73 CALM      30.06R
LAS CRUCES     FAIR      43  30  59 CALM      30.07S
HOLLOMAN AFB   FAIR      46  32  58 S10       30.08R
ALAMOGORDO     FAIR      48  30  49 S14       30.05R
T OR C         FAIR      42  29  59 SW5       30.01S

$$
NMZ519>523-231700-
CENTRAL VALLEYS/CENTRAL HIGHLANDS

CITY           SKY/WX    TMP DP  RH WIND       PRES   REMARKS
ALBUQUERQUE    FAIR      37  29  72 S6        29.97S WCI  32
DOUBLE EAGLE   MOSUNNY   34  30  86 SE5       29.97S WCI  30
MORIARTY ARPT  FAIR      37  26  66 S8        29.98S WCI  31
CLINES CORNERS FAIR      35  25  66 SW18      29.97R WCI  24
BELEN          FAIR      38  29  70 S9        29.97S WCI  31
SOCORRO        FAIR      40  29  64 S14       29.98S WCI  32

$$
NMZ524>526-539-540-231700-
SOUTHCENTRAL MOUNTAINS

CITY           SKY/WX    TMP DP  RH WIND       PRES   REMARKS
RUIDOSO        FAIR      45  25  45 NE6       30.03R

$$
NMZ527>531-231700-
NORTHEAST HIGHLANDS/NORTHEAST PLAINS

CITY           SKY/WX    TMP DP  RH WIND       PRES   REMARKS
LAS VEGAS      FAIR      41  24  51 SW22G30   29.92R
RATON          FAIR      44  23  43 W23G30    29.84R
CLAYTON        FAIR      50  28  42 W26G38    29.77R

$$
NMZ532>537-231700-
EASTCENTRAL PLAINS

CITY           SKY/WX    TMP DP  RH WIND       PRES   REMARKS
TUCUMCARI      FAIR      50  30  46 W17G25    29.88R
CANNON AFB     FAIR      45  30  56 W15       29.92R
CLOVIS AIRPORT FAIR      46  28  49 W20       29.91R

$$
NMZ028-029-538-231700-
SOUTHEAST PLAINS

CITY           SKY/WX    TMP DP  RH WIND       PRES   REMARKS
ROSWELL        FAIR      41  29  62 CALM      29.93R
ARTESIA        FAIR      57  30  35 SW25G32   29.95S
CARLSBAD       FAIR      45  30  55 VRB6      29.96R
HOBBS          SUNNY     50  32  50 SW8       29.97R


$$




USA.gov is the U.S. government's official web portal to all federal, state and local government web resources and services.